Regional Weather Roundup
Issued by NWS

Home | Current Version | Previous Version | Graphics & Text | Print | Product List | Glossary On
Versions: 1 2 3 4 5 6 7 8 9 10 11 12 13 14 15 16 17 18 19 20 21 22 23 24 25 26 27 28 29 30 31 32 33 34 35 36 37 38 39 40 41 42 43 44 45 46 47 48 49 50
000
ASUS43 KLOT 130903
RWRIL

ILLINOIS REGIONAL WEATHER ROUNDUP
NATIONAL WEATHER SERVICE CHICAGO/ROMEOVILLE IL
300 AM CST SAT FEB 13 2016

NOTE: "FAIR" INDICATES FEW OR NO CLOUDS BELOW 12,000 FEET WITH NO
SIGNIFICANT WEATHER AND/OR OBSTRUCTIONS TO VISIBILITY.

* THESE STATIONS ARE NOT UNDER NWS QUALITY CONTROL. THEY ALSO MAY NOT
  REPORT WEATHER SUCH AS PRECIPITATION OR FOG.

ILZ001-002-007-009-015-016-024-131000-
NORTHWEST ILLINOIS

CITY           SKY/WX    TMP DP  RH WIND       PRES   REMARKS
MOLINE         PTCLDY     7  -7  52 N8        30.61R WCI  -6
STERLING*      PTCLDY     7  -9  47 N7        30.56R WCI  -5
$$

ILZ003-004-008-010-011-017-018-131000-
NORTH CENTRAL ILLINOIS

CITY           SKY/WX    TMP DP  RH WIND       PRES   REMARKS
ROCKFORD       CLEAR      4 -10  52 N12       30.58R WCI -12
FREEPORT*      MOCLDY     3 -10  54 NW8       30.58R WCI -10
DE KALB*       PTCLDY     4 -10  53 N10G18    30.54R WCI -11
$$

ILZ005-006-012>014-019>023-131000-
NORTHEAST ILLINOIS

CITY           SKY/WX    TMP DP  RH WIND       PRES   REMARKS
CHICAGO-OHARE  PTCLDY     4 -10  52 NW15      30.52R WCI -14
CHICAGO-MIDWAY CLEAR      6 -12  43 NW16      30.53R WCI -12
AURORA         PTCLDY     5  -8  55 NW14      30.55R WCI -12
WAUKEGAN       CLEAR      2 -10  57 NW9       30.51R WCI -13
DUPAGE AIRPORT PTCLDY     4 -10  52 NW10      30.53R WCI -11
WHEELING       PTCLDY     4 -10  52 NW12      30.54R WCI -12
NORTHERLY ISL    N/A      7  -8  50 NW13        N/A  WCI  -9
$$

LMZ740>746-131000-
SOUTHERN LAKE MICHIGAN

STATION/POSITION SKY/WX   TEMP    WIND        PRES    VSBY  WAVE
                          AIR SEA DIR/SP/G                  HT/PER
                          (F)     (DEG/KT/KT) (MB)    (MI)  (FT/S)
HARRISON CRIB               8     310/ 22/ 24   N/A
BURNHAM HARBOR              7     290/  9/ 18   N/A
CALUMET HARBOR              6     290/  9/ 19 1032.2R
BURNS HARBOR               12     310/ 19     1031.8R
MICHIGAN CITY              12     320/ 24/ 26   N/A
$$

ILZ025>027-034>036-040-047-049-050-058-095>099-131000-
WEST-CENTRAL ILLINOIS

CITY           SKY/WX    TMP DP  RH WIND       PRES   REMARKS
QUINCY         PTCLDY     6  -2  69 NW8       30.61R WCI  -7
MACOMB*        PTCLDY     8  -1  66 N12       30.62R WCI  -7
$$

ILZ028>032-037-038-041>044-048-051>054-059>061-131000-
CENTRAL ILLINOIS

CITY           SKY/WX    TMP DP  RH WIND       PRES   REMARKS
BLOOMINGTON    CLEAR      7  -4  60 N9        30.54R WCI  -6
DECATUR        CLEAR     10   0  63 NW15      30.55R WCI  -7
PEORIA         CLEAR      8  -5  55 N8        30.59R WCI  -4
SPRINGFIELD    CLOUDY    10  -1  61 NW8       30.59R WCI  -2
TAYLORVILLE    NOT AVBL
$$

ILZ033-039-045-046-055>057-062-063-131000-
EAST-CENTRAL ILLINOIS

CITY           SKY/WX    TMP DP  RH WIND       PRES   REMARKS
CHAMPAIGN      PTCLDY     9  -2  61 NW14      30.53R WCI  -7
MATTOON        CLEAR     10   2  69 NW12      30.52R WCI  -5
$$

ILZ079-100>102-131000-
SOUTHWEST ILLINOIS

CITY           SKY/WX    TMP DP  RH WIND       PRES   REMARKS
BELLEVILLE     CLEAR     14   4  64 VRB6      30.59R WCI   5
CAHOKIA*       CLEAR     15   2  56 N17       30.61R WCI  -1
SPARTA*        CLEAR     16   6  66 N10       30.59R WCI   3
$$

ILZ064>066-069>071-074>076-080>082-084>086-088>090-092>094-131000-
SOUTH-CENTRAL ILLINOIS

CITY           SKY/WX    TMP DP  RH WIND       PRES   REMARKS
CARBONDALE     CLEAR     17   6  62 N12       30.57R WCI   4
MT. VERNON     CLEAR     16   1  53 N3        30.56R
CENTRALIA*     CLEAR     16   7  69 N14       30.56R WCI   1
SALEM*         CLEAR     16   4  61 N12       30.57R WCI   3
$$

ILZ067-068-072-073-078-083-087-091-131000-
SOUTHEAST ILLINOIS

CITY           SKY/WX    TMP DP  RH WIND       PRES   REMARKS
LAWRENCEVILLE  PTCLDY    14   4  64 N20       30.53R WCI  -3
HARRISBURG*    CLEAR     18   7  64 NW9       30.56R WCI   6
$$

ABBREVIATIONS USED IN REMARKS
   TC - TEMPERATURE IN CELSIUS
  WCI - WIND CHILL INDEX
   HX - HEAT INDEX
  VSB - VISIBILITY
$$




USA.gov is the U.S. government's official web portal to all federal, state and local government web resources and services.